Location: Derby
(52.9213°N, 1.4761°W)
Time: 14:44:17
(UTC+01:00)

Tiros 1 - Visible Passes

Search period start: 18 May 2025 00:00
Search period end: 28 May 2025 00:00
Orbit: 620 x 651 km, 48.4° (Epoch: 17 May)

Date Brightness Start Highest point End Pass type
(mag) Time Alt. Az. Time Alt. Az. Time Alt. Az.
18 May 8.0 00:16:17 10° W 00:20:17 28° SSW 00:20:31 28° SSW visible
18 May 7.6 22:56:38 10° W 23:00:59 41° SSW 23:04:01 18° SE visible
19 May 8.7 00:38:54 10° WSW 00:41:25 18° SW 00:41:25 18° SW visible
19 May 8.0 23:18:56 10° W 23:23:02 31° SSW 23:24:55 23° SSE visible
20 May 7.6 21:59:20 10° W 22:03:42 43° SSW 22:08:08 10° ESE visible
20 May 8.5 23:41:26 10° W 23:44:57 21° SSW 23:45:52 20° SSW visible
21 May 8.0 22:21:36 10° W 22:25:45 34° SSW 22:29:26 13° SE visible
22 May 9.1 00:04:35 10° WSW 00:06:46 13° SW 00:06:50 13° SW visible
22 May 8.5 22:44:01 10° W 22:47:43 24° SSW 22:50:26 15° SSE visible
23 May 9.0 23:06:54 10° WSW 23:09:33 15° SW 23:11:27 12° S visible
25 May 9.0 22:09:18 10° WSW 22:12:19 17° SW 22:15:21 10° S visible
